GLOBALSTAR M079         
1 37188U 10054A   19265.51838071 -.00000107  00000-0 -16245-4 0  9995
2 37188  52.0057  36.3101 0000558  72.6577 331.0605 12.62266940412603
GLOBALSTAR M074         
1 37189U 10054B   19265.46276487 -.00000102  00000-0  78676-5 0  9998
2 37189  52.0034  36.1272 0000531  54.5140 336.9972 12.62263349412591
GLOBALSTAR M076         
1 37190U 10054C   19265.82560983 -.00000108  00000-0 -21839-4 0  9992
2 37190  52.0048  34.9976 0000825  55.6284  66.5634 12.62267904412640
GLOBALSTAR M077         
1 37191U 10054D   19264.53545017 -.00000102  00000-0  10981-4 0  9990
2 37191  52.0096 355.1894 0000565  79.4726 355.5428 12.62267811413232
GLOBALSTAR M075         
1 37192U 10054E   19265.05385527 -.00000104  00000-0  19684-6 0  9990
2 37192  51.9943  80.7639 0000855  56.5757  97.1109 12.62263312411787
GLOBALSTAR M073         
1 37193U 10054F   19265.76676868 -.00000092  00000-0  67435-4 0  9991
2 37193  52.0083 350.8334 0000626  88.1833  65.4401 12.62266691413384